Flag for Denmark Weather past 2 weeks in Horsens, Denmark

Now
50 °F

Drizzle. Fog.


Feels Like: 44 °F
Forecast: 47 / 57 °F
Wind: 17 mph from South

Location: Billund Lufthavn

Current Time: Jun 2, 2015 at 11:58:11 AM

Latest Report: Jun 2, 2015 at 11:20 AM


Visibility: 2 mi

Pressure: 29.56 "Hg

Humidity: 94%

Dew point: 48 °F

Location of HorsensLocation

Historic Weather in Horsens — Graph

°F

Horsens temperature yesterday

Maximum temperature yesterday: 55 °F (at 1:50 PM)
Minimum temperature yesterday: 46 °F (at 4:20 AM)
Average temperature yesterday: 51 °F

Past Weeks' High & Low Weather Summary

 TemperatureHumidityPressure
High61 °F (May 22, 2:20 PM)100% (May 18, 10:20 PM)30.24 "Hg (May 18, 10:20 PM)
Low39 °F (May 23, 5:20 AM)47% (May 29, 1:20 PM)29.45 "Hg (May 19, 12:20 AM)
Average50 °F77%29.88 "Hg
* Reported May 18 10:20 AM — Jun 2 10:20 AM, Horsens, Weather by CustomWeather, © 2015

Note: Actual official high and low records may vary slightly from our data, if they occured in-between our weather recording intervals... More about our weather records

Advertising

Horsens weather history for previous 24 hours

 ConditionsComfort  
Time TempWeatherWind HumidityBarometerVisibility
10:20 AM
Tue, Jun 2
50 °FLight rain. Fog.18 mph94%29.56 "Hg2 mi
9:50 AM50 °FLight rain. Partly sunny.17 mph94%29.59 "Hg3 mi
9:20 AM50 °FBroken clouds.16 mph88%29.59 "HgN/A
8:50 AM50 °FPartly sunny.14 mph88%29.59 "HgN/A
8:20 AM50 °FLight rain. Broken clouds.15 mph88%29.62 "Hg5 mi
7:50 AM48 °FLight rain. Broken clouds.14 mph94%29.62 "Hg5 mi
7:20 AM48 °FLight rain. Partly sunny.14 mph94%29.65 "HgN/A
6:50 AM48 °FLight rain. Partly sunny.12 mph94%29.68 "HgN/A
6:20 AM48 °FLight rain. Broken clouds.14 mph87%29.68 "HgN/A
5:20 AM48 °FLight rain. Partly cloudy.10 mph87%29.71 "Hg5 mi
4:50 AM50 °FLight rain. Partly cloudy.10 mph82%29.74 "HgN/A
4:20 AM50 °FLight rain. Partly cloudy.10 mph82%29.74 "HgN/A
3:50 AM50 °FLight rain. Passing clouds.13 mph76%29.77 "HgN/A
3:20 AM50 °FLight rain. Passing clouds.12 mph76%29.77 "HgN/A
2:20 AM48 °FClear.8 mph71%29.83 "Hg10 mi
1:50 AM48 °FClear.6 mph71%29.83 "Hg10 mi
1:20 AM48 °FClear.6 mph71%29.86 "Hg10 mi
12:50 AM48 °FClear.7 mph71%29.86 "Hg10 mi
12:20 AM46 °FClear.7 mph76%29.89 "Hg10 mi
11:50 PM
Mon, Jun 1
46 °FClear.7 mph76%29.89 "Hg10 mi
11:20 PM46 °FClear.6 mph76%29.92 "Hg10 mi
10:50 PM48 °FSunny.5 mph71%29.92 "Hg10 mi
10:20 PM48 °FSunny.5 mph71%29.92 "Hg10 mi
9:50 PM50 °FSunny.5 mph67%29.92 "Hg10 mi
9:20 PM50 °FScattered clouds.8 mph67%29.92 "HgN/A
8:50 PM52 °FPartly sunny.10 mph62%29.92 "HgN/A
8:20 PM52 °FPartly sunny.8 mph62%29.95 "HgN/A
7:50 PM52 °FPartly sunny.13 mph58%29.95 "HgN/A
7:20 PM54 °FPartly sunny.12 mph54%29.92 "HgN/A
6:50 PM54 °FPassing clouds.13 mph54%29.95 "HgN/A
6:20 PM55 °FScattered clouds.12 mph51%29.95 "HgN/A
5:50 PM55 °FPassing clouds.14 mph47%29.95 "HgN/A
5:20 PM55 °FScattered clouds.15 mph47%29.95 "HgN/A
4:50 PM55 °FPassing clouds.16 mph47%29.95 "HgN/A
4:20 PM55 °FPassing clouds.17 mph47%29.95 "HgN/A
3:50 PM55 °FPassing clouds.18 mph47%29.95 "HgN/A
3:20 PM55 °FScattered clouds.18 mph47%29.95 "HgN/A
2:50 PM55 °FPartly sunny.17 mph51%29.95 "HgN/A
2:20 PM55 °FScattered clouds.21 mph51%29.92 "HgN/A
1:50 PM55 °FPassing clouds.18 mph51%29.92 "HgN/A
1:20 PM54 °FScattered clouds.15 mph67%29.92 "HgN/A
12:50 PM54 °FPartly sunny.17 mph58%29.89 "HgN/A
12:20 PM54 °FPartly sunny.16 mph54%29.89 "HgN/A
11:50 AM54 °FScattered clouds.20 mph58%29.86 "HgN/A
11:20 AM54 °FPartly sunny.16 mph63%29.86 "HgN/A
Weather by CustomWeather, © 2015

See weather overviewHow to use our weather pages